DCCHB ELLX-EDFE

Flight info

Callsign DCCHB
Flight time N/A
Altitude 15000
Route EXCOS Q763 MAPIG DCT LADAT Z818 RINEX Z12 KETEG Z3 VATAK DCT CHA VFR DCT
Aircraft LJ35/M-SGHRWXY/SB1

Departure

Time 2026-05-06 19:35
Airport Luxembourg-Findel International Airport (ELLX)

Arrival

Time N/A
Airport Frankfurt-Egelsbach Airport (EDFE)
Time Latitude Longitude Altitude Speed Heading
2026-05-06 19:21 49.62417 6.19795 1211 ft 0 kts 144°
2026-05-06 19:29 49.62404 6.19807 1211 ft 5 kts 166°
2026-05-06 19:29 49.62357 6.19795 1210 ft 9 kts 144°
2026-05-06 19:29 49.62339 6.19857 1213 ft 7 kts 62°
2026-05-06 19:30 49.62364 6.19927 1215 ft 9 kts 60°
2026-05-06 19:30 49.62406 6.20037 1218 ft 14 kts 59°
2026-05-06 19:30 49.62452 6.20162 1224 ft 12 kts 61°
2026-05-06 19:30 49.62498 6.20278 1227 ft 14 kts 57°
2026-05-06 19:31 49.62563 6.20406 1231 ft 15 kts 50°
2026-05-06 19:31 49.62630 6.20523 1235 ft 15 kts 49°
2026-05-06 19:31 49.62800 6.20766 1235 ft 17 kts 53°
2026-05-06 19:32 49.62855 6.20926 1233 ft 16 kts 64°
2026-05-06 19:32 49.62907 6.21097 1231 ft 20 kts 63°
2026-05-06 19:32 49.62966 6.21288 1227 ft 16 kts 64°
2026-05-06 19:32 49.63011 6.21430 1224 ft 16 kts 63°
2026-05-06 19:33 49.63062 6.21594 1222 ft 14 kts 65°
2026-05-06 19:33 49.63099 6.21715 1223 ft 13 kts 65°
2026-05-06 19:33 49.63146 6.21870 1222 ft 15 kts 64°
2026-05-06 19:33 49.63175 6.21995 1223 ft 13 kts 102°
2026-05-06 19:34 49.63095 6.22094 1219 ft 17 kts 150°
2026-05-06 19:34 49.63013 6.22113 1217 ft 17 kts 216°
2026-05-06 19:34 49.62835 6.21657 1220 ft 100 kts 240°
2026-05-06 19:34 49.62326 6.20287 1489 ft 181 kts 242°
2026-05-06 19:35 49.61604 6.18363 2270 ft 230 kts 242°
2026-05-06 19:35 49.60758 6.16220 3411 ft 232 kts 240°
2026-05-06 19:35 49.59747 6.14318 4467 ft 231 kts 217°
2026-05-06 19:35 49.58283 6.13515 5311 ft 223 kts 183°
2026-05-06 19:36 49.56741 6.14127 6009 ft 241 kts 148°
2026-05-06 19:36 49.55565 6.16016 6702 ft 254 kts 118°
2026-05-06 19:36 49.55120 6.18583 7351 ft 255 kts 91°
2026-05-06 19:36 49.55178 6.21393 8086 ft 264 kts 85°
2026-05-06 19:37 49.55247 6.24321 8716 ft 293 kts 87°
2026-05-06 19:37 49.55310 6.27614 9384 ft 323 kts 87°
2026-05-06 19:37 49.55387 6.31215 10090 ft 348 kts 87°
2026-05-06 19:37 49.55503 6.33750 10613 ft 354 kts 81°
2026-05-06 19:38 49.56159 6.38689 11697 ft 357 kts 77°
2026-05-06 19:38 49.56638 6.42461 12518 ft 360 kts 78°
2026-05-06 19:38 49.56932 6.46302 13342 ft 363 kts 83°
2026-05-06 19:38 49.57243 6.49474 13996 ft 0 kts 79°
2026-05-06 19:42 49.57670 6.51744 14682 ft 359 kts 73°
2026-05-06 19:42 49.58301 6.55577 14862 ft 381 kts 77°
2026-05-06 19:42 49.58652 6.59737 14868 ft 403 kts 85°
2026-05-06 19:43 49.58730 6.64149 14877 ft 418 kts 90°
2026-05-06 19:43 49.58719 6.66584 14874 ft 422 kts 90°
2026-05-06 19:43 49.58761 6.71137 14867 ft 428 kts 88°
2026-05-06 19:43 49.58921 6.75743 14864 ft 432 kts 86°
2026-05-06 19:44 49.59072 6.80387 14863 ft 436 kts 88°
2026-05-06 19:44 49.59129 6.83483 14867 ft 438 kts 88°
2026-05-06 19:44 49.59239 6.90441 14865 ft 441 kts 88°
2026-05-06 19:44 49.59340 6.94505 14864 ft 437 kts 88°
2026-05-06 19:45 49.59455 6.99150 14871 ft 432 kts 88°
2026-05-06 19:45 49.59546 7.03761 14865 ft 429 kts 88°
2026-05-06 19:45 49.59630 7.08344 14867 ft 427 kts 88°
2026-05-06 19:45 49.59720 7.12862 14863 ft 427 kts 88°
2026-05-06 19:46 49.59816 7.17482 14860 ft 426 kts 88°
2026-05-06 19:46 49.59905 7.21995 14854 ft 426 kts 88°
2026-05-06 19:46 49.59986 7.26551 14850 ft 425 kts 88°
2026-05-06 19:46 49.60069 7.31161 14850 ft 424 kts 88°
2026-05-06 19:47 49.60152 7.35651 14846 ft 424 kts 88°
2026-05-06 19:47 49.60233 7.40182 14846 ft 424 kts 88°
2026-05-06 19:47 49.60312 7.44722 14842 ft 423 kts 89°
2026-05-06 19:47 49.60386 7.49263 14839 ft 423 kts 89°
2026-05-06 19:48 49.60461 7.53796 14844 ft 423 kts 89°
2026-05-06 19:48 49.60534 7.58321 14843 ft 423 kts 89°
2026-05-06 19:48 49.60606 7.62859 14839 ft 423 kts 89°
2026-05-06 19:48 49.60676 7.67408 14840 ft 427 kts 89°
2026-05-06 19:49 49.60744 7.71994 14843 ft 429 kts 89°
2026-05-06 19:49 49.60811 7.76610 14845 ft 431 kts 89°
2026-05-06 19:49 49.60874 7.81232 14848 ft 432 kts 89°
2026-05-06 19:49 49.60939 7.85868 14851 ft 433 kts 89°
2026-05-06 19:50 49.61001 7.90512 14846 ft 434 kts 89°
2026-05-06 19:50 49.61061 7.95162 14851 ft 434 kts 89°
2026-05-06 19:50 49.61119 7.99810 14853 ft 434 kts 89°
2026-05-06 19:50 49.61174 8.04471 14854 ft 434 kts 89°
2026-05-06 19:51 49.61219 8.08209 14722 ft 437 kts 89°
2026-05-06 19:51 49.61283 8.13832 14171 ft 431 kts 89°
2026-05-06 19:51 49.61330 8.18409 13723 ft 422 kts 89°
2026-05-06 19:51 49.61377 8.22894 13220 ft 416 kts 89°
2026-05-06 19:52 49.61423 8.27325 12716 ft 411 kts 89°
2026-05-06 19:52 49.61467 8.31702 12221 ft 405 kts 89°
2026-05-06 19:52 49.61505 8.36012 11734 ft 400 kts 89°
2026-05-06 19:52 49.61543 8.40281 11250 ft 396 kts 89°
2026-05-06 19:53 49.61581 8.44515 10778 ft 392 kts 89°
2026-05-06 19:53 49.61615 8.48702 10309 ft 389 kts 90°
2026-05-06 19:53 49.61646 8.52862 9845 ft 386 kts 90°
2026-05-06 19:53 49.61678 8.56965 9390 ft 371 kts 90°
2026-05-06 19:54 49.61705 8.60763 9129 ft 339 kts 90°
2026-05-06 19:54 49.61731 8.64259 8825 ft 314 kts 90°
2026-05-06 19:54 49.61752 8.67527 8513 ft 296 kts 90°
2026-05-06 19:54 49.61771 8.70631 8234 ft 284 kts 90°
2026-05-06 19:55 49.61789 8.73637 7943 ft 279 kts 90°
2026-05-06 19:55 49.61805 8.76629 7658 ft 280 kts 90°
2026-05-06 19:55 49.61822 8.79642 7396 ft 281 kts 90°
2026-05-06 19:55 49.61839 8.82660 7147 ft 282 kts 90°
2026-05-06 19:56 49.61856 8.85712 6899 ft 287 kts 90°
2026-05-06 19:56 49.61867 8.88806 6667 ft 289 kts 90°
2026-05-06 19:56 49.61967 8.91889 6417 ft 288 kts 81°
2026-05-06 19:56 49.62573 8.94851 6163 ft 285 kts 64°
2026-05-06 19:57 49.63507 8.97456 5919 ft 277 kts 58°
2026-05-06 19:57 49.64494 8.99956 5662 ft 270 kts 56°
2026-05-06 19:57 49.65569 9.02369 5411 ft 268 kts 53°
2026-05-06 19:57 49.66584 9.04520 5174 ft 262 kts 52°
2026-05-06 19:58 49.67659 9.06777 4917 ft 263 kts 52°
2026-05-06 19:58 49.68751 9.09072 4658 ft 267 kts 52°
2026-05-06 19:58 49.70075 9.11059 4366 ft 268 kts 29°
2026-05-06 19:58 49.71816 9.11998 4087 ft 267 kts
2026-05-06 19:59 49.73652 9.12448 3881 ft 268 kts
2026-05-06 19:59 49.75509 9.12834 3647 ft 270 kts
2026-05-06 19:59 49.77332 9.13206 3422 ft 260 kts
2026-05-06 19:59 49.79074 9.13546 3188 ft 251 kts
2026-05-06 20:00 49.80819 9.13886 2978 ft 247 kts
2026-05-06 20:00 49.82463 9.14199 2974 ft 238 kts
2026-05-06 20:00 49.84083 9.14516 2960 ft 232 kts
2026-05-06 20:00 49.85663 9.14838 2958 ft 227 kts
2026-05-06 20:01 49.87220 9.15140 2959 ft 224 kts
2026-05-06 20:01 49.88760 9.15440 2963 ft 221 kts
2026-05-06 20:01 49.90287 9.15740 2961 ft 221 kts
2026-05-06 20:01 49.91801 9.15740 2962 ft 217 kts 345°
2026-05-06 20:02 49.93234 9.14963 2962 ft 224 kts 338°
2026-05-06 20:02 49.94826 9.14072 2979 ft 253 kts 338°
2026-05-06 20:02 49.96520 9.13228 2981 ft 257 kts 341°
2026-05-06 20:02 49.98240 9.12431 2983 ft 257 kts 341°
2026-05-06 20:03 49.99951 9.11715 2976 ft 253 kts 344°
2026-05-06 20:03 50.01696 9.11058 2977 ft 249 kts 344°
2026-05-06 20:03 50.03322 9.10441 2981 ft 246 kts 344°
2026-05-06 20:03 50.04981 9.09818 2978 ft 244 kts 344°
2026-05-06 20:04 50.06626 9.09200 2979 ft 243 kts 345°
2026-05-06 20:04 50.08262 9.08589 2975 ft 241 kts 345°
2026-05-06 20:04 50.09892 9.07978 2976 ft 243 kts 345°
2026-05-06 20:04 50.11547 9.07360 2977 ft 247 kts 344°
2026-05-06 20:05 50.13235 9.06731 2980 ft 252 kts 345°
2026-05-06 20:05 50.14950 9.06069 2980 ft 254 kts 344°
2026-05-06 20:05 50.16667 9.05392 2981 ft 254 kts 344°
2026-05-06 20:05 50.18385 9.04737 2984 ft 253 kts 344°
2026-05-06 20:06 50.20087 9.04085 2972 ft 251 kts 344°
2026-05-06 20:06 50.21773 9.03444 2972 ft 248 kts 345°
2026-05-06 20:06 50.23445 9.02812 2971 ft 247 kts 345°
2026-05-06 20:06 50.25115 9.02187 2967 ft 247 kts 345°
2026-05-06 20:07 50.26796 9.01548 2971 ft 251 kts 345°
2026-05-06 20:07 50.28493 9.00897 2974 ft 251 kts 344°
2026-05-06 20:07 50.30192 9.00234 2970 ft 251 kts 344°
2026-05-06 20:07 50.31903 8.99746 2961 ft 252 kts 359°
2026-05-06 20:08 50.33579 9.00466 2956 ft 253 kts 29°
2026-05-06 20:08 50.34827 9.02401 2955 ft 256 kts 55°
2026-05-06 20:08 50.35711 9.04810 2959 ft 256 kts 61°
2026-05-06 20:08 50.36543 9.07290 2967 ft 257 kts 61°